Regional Weather Roundup
Issued by NWS

Home | Current Version | Previous Version | Text Only | Print | Product List | Glossary On
Versions: 1 2 3 4 5 6 7 8 9 10 11 12 13 14 15 16 17 18 19 20 21 22 23 24 25 26 27 28 29 30 31 32 33 34 35 36 37 38 39 40 41 42 43 44 45 46 47 48 49 50
000
ASUS44 KFWD 201315
RWRTX
NORTH TEXAS HOURLY WEATHER ROUNDUP
NATIONAL WEATHER SERVICE FORT WORTH TX
800 AM CDT SUN APR 20 2014

NOTE: "FAIR" INDICATES FEW OR NO CLOUDS BELOW 12,000 FEET WITH NO
SIGNIFICANT WEATHER AND/OR OBSTRUCTIONS TO VISIBILITY.

TXZ118-119-201400-
DALLAS/FORT WORTH METROPLEX

CITY           SKY/WX    TMP DP  RH WIND       PRES   REMARKS
DFW AIRPORT    CLOUDY    65  55  70 S12       30.12R
DALLAS LOVE    CLOUDY    67  54  63 SW6       30.12R
FTW MEACHAM    CLOUDY    65  56  72 SW6       30.12R
DAL-EXECUTIVE  CLOUDY    65  56  72 S6        30.11S
FTW-ALLIANCE   CLOUDY    63  56  78 SW6       30.12R
FTW-NAS-JRB    CLOUDY    66  54  65 S10       30.16R
FTW-SPINKS     SUNNY     64  55  72 S10       30.12R
ARLINGTON      CLOUDY    64  56  75 S5        30.12R
GRAND PRAIRIE  SUNNY     64  55  72 S6        30.14R
ADDISON        CLOUDY    64  55  72 CALM      30.13
MESQUITE       SUNNY     61  55  82 SE13      30.12S
LANCASTER      CLOUDY    60  55  83 SE9       30.13S
$$

TXZ091>094-102>105-117-120-121-131>134-201400-
NORTH CENTRAL TEXAS

CITY           SKY/WX    TMP DP  RH WIND       PRES   REMARKS
SHRMAN/DENISON CLOUDY    62  53  73 S9        30.13R
GAINESVILLE    CLOUDY    59  55  84 CALM      30.15R
BOWIE          CLOUDY    61  56  85 E5        30.10S
BRIDGEPORT     CLOUDY    62  55  75 SE5       30.13R
DECATUR        CLOUDY    61  54  77 SE5       30.13R
DENTON         CLOUDY    62  56  80 CALM      30.12R
MCKINNEY       CLOUDY    62  57  83 CALM      30.13R
GREENVILLE     CLOUDY    63  55  77 S6        30.14R
ROCKWALL       CLOUDY    62  57  83 SE9       30.11S
TERRELL        CLOUDY    63  60  90 S9        30.14R
WAXAHACHIE     PTSUNNY   60  55  81 SE9       30.12F
CLEBURNE       PTSUNNY   61  59  94 S9        30.14S
GRANBURY       CLOUDY    65  55  72 E6        30.12R
$$

TXZ083>090-098>101-113>116-127>130-139>142-154-155-201400-
WESTERN NORTH TEXAS

CITY           SKY/WX    TMP DP  RH WIND       PRES   REMARKS
WICHITA FALLS  CLOUDY    61  54  77 SE8       30.07S
WF-KICKAPOO    CLOUDY    63  53  71 E6        30.09S
VERNON         CLOUDY    61  57  86 SE7       30.08R
ABILENE        CLOUDY    63  54  72 CALM      30.10R
ABILENE-DYESS  CLOUDY    63  55  75 SW3       30.09R
BRECKENRIDGE   CLOUDY    65  55  68 SW6       30.05R
GRAHAM         CLOUDY    63  55  74 SE5       30.05F
MINERAL WELLS  RAIN      60  56  86 SE12      30.10R FOG
STEPHENVILLE   CLOUDY    61  55  80 SE9       30.10F
COMANCHE       CLOUDY    60  57  90 SE14      30.06F
BROWNWOOD      PTSUNNY   61  55  82 SE9       30.07R
COLEMAN        MOSUNNY   60  56  86 S7        30.07R
BRADY          SUNNY     63  52  67 SE8       30.08R
$$

TXZ143>147-156>162-174-175-201400-
CENTRAL TEXAS

CITY           SKY/WX    TMP DP  RH WIND       PRES   REMARKS
WACO           PTSUNNY   59  56  89 SE6       30.13S
WACO-TSTC      SUNNY     59  57  94 SE3       30.14S
WACO-MCGREGOR  MOSUNNY   59  54  82 SE7       30.14S
HILLSBORO      PTSUNNY   63  56  79 SE8       30.13S
CORSICANA      MOSUNNY   62  58  86 S5        30.16R
MEXIA          MOSUNNY   60  58  95 CALM      30.15R
HEARNE         CLOUDY    61  60  96 SE8       30.16S FOG
CAMERON        FOG       59  59  98 CALM      30.15S VSB 1/2
TEMPLE         PTSUNNY   61  55  82 S6        30.17R
KILLEEN        CLOUDY    61  59  94 SE10      30.12R
KILLEEN-SKYLRK MOSUNNY  N/A N/A N/A SE8       30.11F
FORT HOOD      CLOUDY    63  59  87 SE8       30.12S
GATESVILLE     MOSUNNY   61  59  94 SE5       30.14R
HAMILTON       PTSUNNY   61  56  85 SE7       30.13S
LAMPASAS       CLOUDY    60  58  91 SE6       30.11R
$$

TXZ095>097-106>112-122>126-135>138-148>153-164>167-201400-
EAST TEXAS

CITY           SKY/WX    TMP DP  RH WIND       PRES   REMARKS
PARIS          CLOUDY    59  52  77 SE6       30.16R
SULPHUR SPRNGS CLOUDY    62  55  79 SE3       30.17R
CLARKSVILLE    PTSUNNY   60  54  80 CALM      30.16S
MOUNT PLEASANT PTSUNNY   57  56  94 CALM      30.18R
GILMER         PTSUNNY   59  57  94 CALM      30.18S
MINEOLA        PTSUNNY   61  59  94 CALM      30.16R
TYLER          MOSUNNY   62  57  83 S5        30.16R
LONGVIEW       PTSUNNY   61  57  87 CALM      30.17R
MARSHALL       MOSUNNY   57  54  90 CALM      30.19R
ATHENS         PTSUNNY   57  55  94 CALM      30.16R
PALESTINE      MOSUNNY   59  56  88 CALM      30.19R FOG
JACKSONVILLE   SUNNY     62  57  84 S3        30.19R
HENDERSON      MOSUNNY   58  56  93 MISG      30.18R
NACOGDOCHES    MOSUNNY   54  52  94 CALM      30.18R
LUFKIN         SUNNY     60  56  86 CALM      30.17R FOG
$$

SUPPLEMENTAL OBSERVATIONS (CENTRAL)

CITY           SKY/WX    TMP DP  RH WIND       PRES   REMARKS
LAKE TEXOMA      N/A     55  54  94 E5          N/A
CADDO GRASSLND   N/A     61  55  82 S5          N/A
PAT MAYSE LAKE   N/A     61  52  72 E6          N/A
GREENVILLE       N/A     63  57  82 SE3         N/A
CEDAR HILL       N/A     66  55  68 S6G17       N/A
ATHENS           N/A     63  57  82 S2          N/A
PALESTINE        N/A     61  59  94 CALM        N/A
LAKE LIMESTONE   N/A     61  59  94 SE2         N/A
MCGREGOR         N/A     63  57  82 S9          N/A
TEMPLE           N/A     57  55  94 SE8         N/A
$$

SUPPLEMENTAL OBSERVATIONS (WEST)

CITY           SKY/WX    TMP DP  RH WIND       PRES   REMARKS
MILLERS CREEK    N/A     64  55  72 SE5         N/A
POSSUM KINGDOM   N/A     64  55  72 SE9         N/A
GRANBURY         N/A     64  55  72 E6          N/A
HAMBY            N/A     64  55  72 S5          N/A
$$

SUPPLEMENTAL OBSERVATIONS (EAST)

CITY           SKY/WX    TMP DP  RH WIND       PRES   REMARKS
CLARKSVILLE      N/A     63  55  77 SE5         N/A
TEXARKANA        N/A     57  55  94 CALM        N/A
LINDEN           N/A     59  55  88 E1          N/A
CADDO LAKE       N/A     57  55  94 CALM        N/A
GILMER           N/A     59  54  82 S2          N/A
HENDERSON        N/A     61  57  88 CALM        N/A
LUFKIN           N/A     59  57  94 MISG        N/A
N SABINE NF      N/A     52  50  93 MISG        N/A
S SABINE NF      N/A     57  55  94 CALM        N/A
$$

SUPPLEMENTAL OBSERVATIONS ARE A COLLECTION OF AUTOMATED INSTRUMENTS
THAT ARE MAINTAINED BY A VARIETY OF FEDERAL AND STATE AGENCIES.
CERTAIN ELEMENTS...SUCH AS HUMIDITY VALUES AND SUSTAINED WIND
SPEEDS...MAY BE APPROXIMATED.




USA.gov is the U.S. government's official web portal to all federal, state and local government web resources and services.